CW7364 Weather Reports


Display with metric or nautical units.
time (UTC)temp
F
wind
direction
speed
MPH
gust
MPH
rain 1hr
in
rain 24hr
in
rain mn
in
humidity
%
barometer
mb
20260901133517 83 113 1.0 2.0 0.00 0.00 0.00 65 1016.6
20260901132517 81 135 2.0 3.0 0.00 0.00 0.00 66 1016.5
20260901131537 80 158 2.0 3.0 0.00 0.00 0.00 69 1016.5
20260901130537 78 0.0 0.0 0.00 0.00 0.00 72 1016.3
20260901125516 76 0.0 0.0 0.00 0.00 0.00 75 1016.2
20260901124517 75 0.0 0.0 0.00 0.00 0.00 77 1015.9
20260901123516 73 0.0 2.0 0.00 0.00 0.00 78 1015.8
20260901122516 73 0.0 0.0 0.00 0.00 0.00 76 1015.7
20260901121516 73 0.0 0.0 0.00 0.00 0.00 75 1015.4
20260901120516 75 0.0 0.0 0.00 0.00 0.00 73 1015.5
20260901115517 75 0.0 0.0 0.00 0.00 0.00 72 1015.6
20260901114516 75 0.0 0.0 0.00 0.00 0.00 72 1015.7
20260901113556 75 0.0 0.0 0.00 0.00 0.00 72 1015.6
20260901112536 75 0.0 0.0 0.00 0.00 0.00 71 1015.6
20260901111516 76 0.0 0.0 0.00 0.00 0.00 70 1015.6
20260901110516 76 0.0 0.0 0.00 0.00 0.00 70 1015.6
20260901105516 76 0.0 0.0 0.00 0.00 0.00 70 1015.7
20260901104516 77 0.0 0.0 0.00 0.00 0.00 69 1015.6
20260901103516 77 0.0 0.0 0.00 0.00 0.00 68 1015.6
20260901102536 77 0.0 0.0 0.00 0.00 0.00 68 1015.5
20260901101516 77 135 1.0 3.0 0.00 0.00 0.00 68 1015.6
20260901100516 77 135 1.0 3.0 0.00 0.00 0.00 67 1015.5
20260901095516 78 135 1.0 4.0 0.00 0.00 0.00 67 1015.5
20260901094516 77 135 2.0 4.0 0.00 0.00 0.00 66 1015.5
20260901093516 78 135 2.0 4.0 0.00 0.00 0.00 66 1015.4
20260901092516 77 135 3.0 4.0 0.00 0.00 0.00 66 1015.6
20260901091516 77 90 1.0 2.0 0.00 0.00 0.00 65 1015.5
20260901090536 78 0.0 2.0 0.00 0.00 0.00 64 1015.5
20260901085536 78 0.0 2.0 0.00 0.00 0.00 64 1015.4
20260901084516 78 0.0 1.0 0.00 0.00 0.00 63 1015.4
20260901083516 78 0.0 2.0 0.00 0.00 0.00 63 1015.4
20260901082515 78 0.0 1.0 0.00 0.00 0.00 63 1015.4
20260901081515 78 0.0 0.0 0.00 0.00 0.00 63 1015.3
20260901080516 78 0.0 0.0 0.00 0.00 0.00 62 1015.2
20260901075515 78 90 2.0 3.0 0.00 0.00 0.00 62 1015.2
20260901074516 78 90 2.0 3.0 0.00 0.00 0.00 62 1015.0
20260901073515 78 90 1.0 3.0 0.00 0.00 0.00 62 1015.1
20260901072516 78 90 2.0 4.0 0.00 0.00 0.00 62 1015.1
20260901071515 78 90 2.0 3.0 0.00 0.00 0.00 61 1015.1
20260901070536 77 90 2.0 4.0 0.00 0.00 0.00 62 1015.1
20260901065515 76 90 4.0 9.0 0.00 0.00 0.00 64 1015.0
20260901064515 76 0.0 0.0 0.00 0.00 0.00 63 1014.9
20260901063515 76 0.0 0.0 0.00 0.00 0.00 62 1014.8
20260901062515 77 0.0 0.0 0.00 0.00 0.00 61 1014.8
20260901061517 77 0.0 0.0 0.00 0.00 0.00 61 1014.8
20260901060517 78 0.0 0.0 0.00 0.00 0.00 60 1014.8
20260901055517 79 0.0 0.0 0.00 0.00 0.00 59 1014.8
20260901054537 79 0.0 0.0 0.00 0.00 0.00 59 1014.8
20260901053538 80 0.0 0.0 0.00 0.00 0.00 58 1014.7
20260901052532 80 0.0 0.0 0.00 0.00 0.00 58 1014.5
20260901051517 80 0.0 0.0 0.00 0.00 0.00 57 1014.4
20260901050517 81 0.0 0.0 0.00 0.00 0.00 56 1014.4
20260901045556 81 0.0 0.0 0.00 0.00 0.00 55 1014.4
20260901044515 82 0.0 0.0 0.00 0.00 0.00 54 1014.3
20260901043515 82 0.0 0.0 0.00 0.00 0.00 53 1014.3
20260901042515 83 0.0 0.0 0.00 0.00 0.00 53 1014.1
20260901041516 83 0.0 0.0 0.00 0.00 0.00 52 1014.2
20260901040515 83 0.0 0.0 0.00 0.00 0.00 52 1014.2
20260901035515 83 0.0 0.0 0.00 0.00 0.00 52 1014.2
20260901034515 84 0.0 0.0 0.00 0.00 0.00 52 1014.2
20260901033515 84 0.0 0.0 0.00 0.00 0.00 52 1014.2
20260901032515 84 0.0 0.0 0.00 0.00 0.00 51 1014.1
20260901031535 85 0.0 0.0 0.00 0.00 0.00 50 1014.0
20260901030515 85 0.0 0.0 0.00 0.00 0.00 49 1013.9
20260901025515 85 0.0 0.0 0.00 0.00 0.00 49 1013.8
20260901024515 86 0.0 0.0 0.00 0.00 0.00 49 1013.6
20260901023517 86 0.0 0.0 0.00 0.00 0.00 49 1013.7
20260901022517 86 113 1.0 2.0 0.00 0.00 0.00 48 1013.4
20260901021537 86 113 1.0 2.0 0.00 0.00 0.00 48 1013.3
20260901020537 87 113 2.0 2.0 0.00 0.00 0.00 48 1013.2
20260901015517 87 113 1.0 2.0 0.00 0.00 0.00 47 1013.0
20260901014517 88 113 2.0 2.0 0.00 0.00 0.00 47 1012.9
20260901013517 89 113 2.0 3.0 0.00 0.00 0.00 46 1012.9
20260901012517 89 113 2.0 3.0 0.00 0.00 0.00 45 1012.6
20260901011537 90 113 1.0 3.0 0.00 0.00 0.00 44 1012.6
20260901010537 91 113 3.0 4.0 0.00 0.00 0.00 43 1012.6
20260901005517 93 135 2.0 3.0 0.00 0.00 0.00 41 1012.6
20260901004517 94 135 3.0 7.0 0.00 0.00 0.00 40 1012.6
20260901003557 94 113 6.0 9.0 0.00 0.00 0.00 39 1012.5
20260901002517 95 158 5.0 9.0 0.00 0.00 0.00 39 1012.7
20260901001537 96 135 5.0 10.0 0.00 0.00 0.00 38 1012.6
20260901000516 96 158 5.0 12.0 0.00 0.00 0.00 37 1012.6
20260831235517 97 135 4.0 7.0 0.00 0.00 0.00 37 1012.6
20260831234517 97 135 6.0 11.0 0.00 0.00 0.00 36 1012.6
20260831233517 97 135 5.0 10.0 0.00 0.00 0.00 36 1012.6
20260831232517 97 158 6.0 12.0 0.00 0.00 0.00 37 1012.6
20260831231516 97 180 5.0 13.0 0.00 0.00 0.00 36 1012.6
20260831230516 97 158 6.0 11.0 0.00 0.00 0.00 36 1012.8
20260831225516 96 135 5.0 10.0 0.00 0.00 0.00 37 1012.6
20260831224516 98 113 9.0 14.0 0.00 0.00 0.00 36 1012.7
20260831223516 98 113 9.0 14.0 0.00 0.00 0.00 36 1012.8
20260831222516 96 158 4.0 8.0 0.00 0.00 0.00 37 1012.8
20260831221516 97 158 6.0 12.0 0.00 0.00 0.00 37 1012.9
20260831220516 97 135 7.0 11.0 0.00 0.00 0.00 37 1013.0
20260831215517 98 135 7.0 14.0 0.00 0.00 0.00 36 1013.2
20260831214536 98 113 9.0 13.0 0.00 0.00 0.00 37 1013.2
20260831213516 96 135 3.0 8.0 0.00 0.00 0.00 38 1013.3
20260831212516 96 135 7.0 11.0 0.00 0.00 0.00 37 1013.4
20260831211516 98 135 8.0 14.0 0.00 0.00 0.00 36 1013.4
20260831210516 97 135 8.0 14.0 0.00 0.00 0.00 37 1013.5
20260831205516 96 135 6.0 14.0 0.00 0.00 0.00 38 1013.7
20260831204516 97 158 7.0 11.0 0.00 0.00 0.00 37 1013.9
20260831203516 97 180 6.0 11.0 0.00 0.00 0.00 37 1014.1
20260831202516 97 135 8.0 12.0 0.00 0.00 0.00 38 1014.2
20260831201516 97 135 7.0 11.0 0.00 0.00 0.00 37 1014.3
20260831200516 97 180 7.0 12.0 0.00 0.00 0.00 35 1014.3
20260831195516 99 135 7.0 12.0 0.00 0.00 0.00 33 1014.4
20260831194516 98 135 7.0 13.0 0.00 0.00 0.00 34 1014.5
20260831193516 99 180 5.0 11.0 0.00 0.00 0.00 33 1014.7
20260831192516 98 180 7.0 13.0 0.00 0.00 0.00 35 1014.7
20260831191516 97 180 7.0 12.0 0.00 0.00 0.00 35 1014.9
20260831190516 100 135 9.0 16.0 0.00 0.00 0.00 32 1014.9
20260831185515 98 180 5.0 12.0 0.00 0.00 0.00 34 1015.0
20260831184535 97 180 6.0 12.0 0.00 0.00 0.00 36 1015.1
20260831183516 97 180 6.0 12.0 0.00 0.00 0.00 37 1015.2
20260831182516 99 135 9.0 20.0 0.00 0.00 0.00 35 1015.5
20260831181515 99 135 9.0 18.0 0.00 0.00 0.00 34 1015.5
20260831180535 99 158 5.0 10.0 0.00 0.00 0.00 35 1015.7
20260831175535 99 180 5.0 9.0 0.00 0.00 0.00 36 1016.0
20260831174535 99 225 5.0 10.0 0.00 0.00 0.00 36 1016.1
20260831173515 98 180 6.0 11.0 0.00 0.00 0.00 36 1016.2
20260831172515 98 158 5.0 12.0 0.00 0.00 0.00 37 1016.3
20260831171515 98 203 6.0 14.0 0.00 0.00 0.00 37 1016.4
20260831170535 97 180 6.0 12.0 0.00 0.00 0.00 38 1016.5
20260831165517 96 225 4.0 12.0 0.00 0.00 0.00 40 1016.5
20260831164517 96 180 4.0 11.0 0.00 0.00 0.00 40 1016.6
20260831163517 95 180 8.0 13.0 0.00 0.00 0.00 40 1016.6
20260831162537 94 203 5.0 10.0 0.00 0.00 0.00 41 1016.7
20260831161517 94 180 8.0 14.0 0.00 0.00 0.00 42 1016.7
20260831160537 94 225 4.0 15.0 0.00 0.00 0.00 44 1016.8
20260831155517 93 203 6.0 9.0 0.00 0.00 0.00 46 1016.8
20260831154537 93 180 6.0 11.0 0.00 0.00 0.00 46 1016.7
20260831153517 92 203 4.0 8.0 0.00 0.00 0.00 48 1016.5
20260831152517 92 180 6.0 10.0 0.00 0.00 0.00 48 1016.6
20260831151517 91 225 3.0 7.0 0.00 0.00 0.00 49 1016.5
20260831150517 90 225 3.0 7.0 0.00 0.00 0.00 50 1016.4
20260831145517 89 180 4.0 10.0 0.00 0.00 0.00 54 1016.5
20260831144517 88 180 5.0 8.0 0.00 0.00 0.00 56 1016.5
20260831143517 87 180 4.0 8.0 0.00 0.00 0.00 60 1016.5
20260831142516 85 180 5.0 9.0 0.00 0.00 0.00 63 1016.4
20260831141517 85 180 4.0 7.0 0.00 0.00 0.00 65 1016.4
20260831140517 84 158 3.0 6.0 0.00 0.00 0.00 66 1016.4
20260831135517 83 158 3.0 5.0 0.00 0.00 0.00 68 1016.3
20260831134517 82 158 3.0 6.0 0.00 0.00 0.00 69 1016.1